Location: La Brionne
(46.1728°N, 1.7849°E)
Time: 07:09:20
(UTC+00:00)

Cosmos 1459 Rocket - Pass Details

Date: 16 June 2021
Orbit: 937 x 999 km, 83.0° (Epoch: 31 July)

Event Time Altitude Azimuth Distance (km) Brightness Sun altitude
Rises 21:00:51 0° 354° (N) 3,614 8.0 -10.2°
Reaches altitude 10° 21:03:24 10° 358° (N) 2,662 7.2 -10.5°
Maximum altitude 21:09:24 62° 78° (ENE) 1,054 4.1 -11.1°
Enters shadow 21:14:33 14° 157° (SSE) 2,351 5.4 -11.7°
